Dewpoint
58 59 59 59 60 60 60 59 59 59 59 59 58 59 60 61 61 56 52 56 58 63 62 51 47 43 42 43 45 43 32 32 36 35 37 39 38 41 43 44 46 48 48 53 58
58 59 59 59 60 60 60 60 59 59 59 57 59 59 60 61 55 52 58 61 62 62 53 49 44 43 38 40 42 36 32 29 39 39 38 39 38 39 38 42 43 45 52 56 58
58 59 59 59 59 59 60 60 60 59 58 58 59 59 60 59 46 42 62 61 63 60 54 52 48 42 36 37 38 37 27 35 38 40 40 39 39 40 38 37 39 40 45 51 54
57 58 59 59 59 59 60 60 60 59 59 58 58 59 59 55 29 50 61 62 63 57 54 51 46 39 34 33 37 33 37 35 39 42 41 40 40 38 39 38 41 42 43 45 46
57 58 58 58 59 59 59 60 60 59 59 59 58 58 55 45 36 50 60 60 58 55 53 49 43 38 34 31 36 34 34 40 41 43 42 42 39 38 39 38 42 42 43 43 44
56 56 57 58 58 59 59 59 59 59 59 59 58 58 49 37 48 50 55 55 53 50 50 50 43 39 35 31 34 31 33 40 43 42 42 41 39 41 38 39 40 41 41 43 42
55 55 56 57 58 58 57 58 58 59 59 58 57 51 44 35 47 50 52 50 54 50 46 49 49 43 36 34 40 38 36 38 39 40 38 40 36 36 38 39 39 39 38 38 40
54 55 55 56 56 57 57 56 58 58 59 58 58 47 38 43 46 48 49 51 55 54 51 52 51 44 40 43 40 34 30 26 25 34 37 37 21 22 29 33 36 33 34 36 37
53 53 54 55 55 56 57 57 57 58 57 57 51 45 39 47 42 42 48 47 53 53 53 53 51 42 44 34 32 33 20 22 18 30 31 35 22 20 33 35 34 32 32 31 32
52 52 52 53 55 55 56 57 56 57 56 52 51 43 42 39 42 40 46 52 50 50 50 48 46 41 39 30 21 20 26 20 21 30 31 30 27 25 35 33 33 32 30 30 31
52 52 52 52 53 55 54 53 49 48 51 45 44 40 40 43 44 40 45 52 49 47 41 44 41 38 35 34 27 24 20 18 23 30 33 30 28 30 31 34 32 32 32 31 30
51 51 51 49 49 54 52 45 43 47 43 47 43 41 42 43 39 40 47 45 45 42 41 41 36 34 35 35 34 30 25 22 25 31 34 27 27 29 30 31 32 32 30 28 27
51 51 51 51 49 52 50 46 46 47 41 44 44 41 41 44 37 40 46 44 39 38 40 37 34 35 33 34 34 33 28 23 24 33 35 32 29 29 29 30 30 32 34 33 34
50 51 50 50 45 48 45 48 50 50 37 39 42 42 42 41 37 40 44 39 38 34 34 35 33 33 33 33 34 30 32 32 30 32 24 30 24 23 26 28 33 34 35 35 35
49 50 50 50 42 43 46 49 52 48 24 36 42 43 41 39 39 40 41 40 34 33 34 31 33 34 33 32 33 32 36 35 35 34 32 29 29 23 23 24 25 27 34 32 34
49 49 50 48 45 45 47 52 49 33 24 36 40 39 38 38 37 42 39 41 36 34 34 32 39 37 33 36 36 38 37 36 36 33 28 27 24 17 20 24 25 28 28 33 34
49 49 48 45 41 48 50 44 32 26 36 33 36 38 36 36 37 38 38 38 33 32 31 32 35 36 38 36 38 38 33 28 27 27 21 20 22 20 21 23 23 25 30 34 33
48 49 47 43 46 48 45 34 26 33 33 37 36 37 34 33 36 36 35 35 34 29 26 27 26 33 37 32 32 35 30 23 16 17 13 25 20 18 25 25 24 26 31 33 33
48 48 45 44 47 47 36 26 29 33 35 34 33 33 34 33 33 35 33 33 33 31 23 25 24 30 33 34 31 33 33 28 26 27 22 21 23 25 29 27 25 31 30 33 32
44 43 41 44 47 40 32 28 31 36 35 33 32 31 32 34 31 34 32 32 31 33 30 27 25 31 32 35 34 32 31 30 33 24 19 15 15 14 23 24 26 30 32 32 32
43 36 42 46 45 34 28 30 32 34 35 34 31 34 31 34 34 34 32 30 32 32 33 29 27 29 33 33 29 31 30 30 28 30 21 18 15 16 17 21 22 26 32 32 32
40 32 42 43 32 32 29 31 29 31 35 34 37 32 30 33 33 32 30 29 30 32 32 32 28 26 29 30 31 32 29 30 26 25 25 22 19 19 19 19 20 21 28 30 32
36 36 42 40 28 28 32 29 29 28 29 33 34 34 30 30 30 31 29 31 32 32 32 33 32 28 28 31 29 30 31 29 28 26 23 26 21 22 22 20 21 22 23 29 32
37 29 35 37 35 32 27 28 28 32 32 34 34 35 31 29 31 32 30 32 34 33 38 36 30 27 22 19 26 27 29 31 30 29 27 25 23 22 20 20 21 22 26 31 31
38 32 32 27 30 29 30 24 26 26 30 33 31 33 34 31 31 29 30 31 33 36 36 35 32 29 28 26 23 25 26 30 30 29 26 24 23 23 22 23 22 23 25 32 29
34 31 33 30 32 28 28 25 24 26 33 31 28 25 28 33 31 29 30 31 30 33 34 35 32 31 29 29 27 26 26 24 29 30 29 28 26 25 23 23 24 24 27 31 29
37 37 37 31 32 29 27 27 24 21 24 26 29 28 27 31 33 29 31 32 30 31 33 34 34 32 28 29 27 26 27 26 24 24 26 24 26 27 26 27 27 27 26 30 29
Lifted_Index
2 2 2 2 2 2 2 3 3 3 4 4 4 4 4 3 2 2 2 2 2 2 2 2 3 3 3 3 2 3 3 2 2 2 2 2 3 3 3 3 3 3 2 1 1
1 1 2 2 2 2 2 2 3 3 4 4 4 4 3 3 3 3 3 3 3 2 2 2 2 3 3 3 3 3 3 3 2 2 2 3 3 3 3 3 3 3 3 2 1
1 1 1 1 1 1 1 2 3 3 4 5 4 4 4 3 4 4 3 3 3 2 2 2 2 3 4 4 3 3 4 3 3 3 3 3 3 3 3 4 4 4 3 3 2
1 1 1 1 1 1 1 1 2 3 4 4 4 4 4 4 5 5 3 2 2 2 2 2 3 4 4 4 4 4 4 4 4 4 4 3 4 4 4 4 4 5 4 4 4
1 1 1 1 1 1 1 1 1 2 3 3 4 4 5 5 6 5 3 2 2 2 2 2 3 4 5 5 4 4 4 4 4 4 4 4 4 4 4 5 5 5 5 5 5
1 1 1 1 1 1 1 1 1 1 1 2 3 4 5 6 6 5 3 3 3 3 3 3 3 4 5 5 5 5 5 5 4 5 5 5 5 5 5 5 5 5 5 5 5
2 2 1 1 1 1 1 1 1 1 1 2 3 4 6 7 6 5 4 3 3 3 3 3 3 4 5 6 6 6 6 6 6 6 5 6 6 6 6 5 5 6 6 6 6
2 2 2 2 1 1 1 2 1 1 1 2 3 4 6 7 6 6 5 4 3 2 3 3 3 5 6 6 6 6 6 7 7 7 6 6 6 7 7 6 6 7 7 7 7
2 2 2 2 1 1 1 1 1 1 2 2 3 4 5 6 7 6 5 4 2 2 2 2 4 5 6 7 7 6 7 7 7 7 7 7 7 8 8 7 7 7 7 8 8
3 3 3 2 2 1 1 1 1 2 2 3 4 4 5 6 6 6 5 3 2 2 3 3 4 5 6 7 7 7 7 7 7 7 7 7 7 8 8 8 8 8 8 8 8
3 3 3 3 2 1 1 2 2 2 3 3 4 4 5 5 6 6 5 3 2 3 3 4 5 6 6 6 7 7 7 7 7 7 7 7 7 8 8 8 8 8 8 8 8
3 3 3 3 2 1 1 2 2 2 2 3 3 4 4 5 5 5 4 3 3 3 4 4 5 6 6 6 6 7 7 7 7 7 7 7 7 7 8 8 8 8 8 8 8
2 3 3 3 3 1 1 1 1 1 1 2 2 3 3 4 5 5 4 4 4 4 4 4 5 6 6 6 6 6 7 7 7 7 7 7 6 7 8 8 8 8 8 8 8
2 2 3 3 3 2 1 1 0 0 1 1 2 2 3 3 4 4 4 4 4 4 4 5 5 6 6 6 6 6 6 6 6 6 6 6 5 6 8 8 8 8 8 8 8
1 1 2 3 3 3 2 1 0 -0 -0 1 2 2 2 3 3 3 3 4 4 5 5 5 5 6 6 6 6 6 5 5 5 5 5 5 5 6 7 7 7 8 8 8 8
-0 0 2 3 3 3 2 1 0 -0 -0 1 2 3 3 2 3 3 3 3 3 4 5 5 5 5 5 5 5 5 5 5 4 4 5 5 5 6 7 7 7 8 8 8 8
-1 -0 1 2 3 3 2 1 0 0 0 1 2 3 3 2 2 2 2 3 3 4 4 5 5 5 5 5 5 5 5 4 3 2 3 5 5 6 7 8 8 8 8 8 8
-0 -0 0 2 3 3 2 1 1 1 1 1 2 2 2 2 1 2 2 2 3 3 4 4 5 5 5 5 5 4 4 3 2 2 3 5 5 6 8 8 8 8 8 8 8
0 0 1 1 2 3 3 2 1 1 1 1 1 1 1 1 1 1 2 2 3 3 3 3 4 4 4 4 4 4 3 3 3 2 3 4 5 6 7 8 8 7 7 8 8
1 1 1 1 2 3 3 2 2 1 1 1 1 0 0 1 1 2 2 2 2 2 2 3 3 3 4 3 3 3 3 3 3 2 2 3 4 6 7 8 7 7 7 7 7
2 2 1 1 1 2 2 3 3 2 1 1 1 0 1 1 1 1 2 2 2 2 2 2 2 3 3 3 3 3 3 2 2 2 1 2 4 5 7 7 7 6 6 6 6
3 2 2 1 2 2 3 3 3 3 2 1 1 1 1 1 1 1 1 1 1 1 2 2 2 2 2 2 2 2 2 2 2 2 2 2 4 5 6 6 6 6 5 5 5
3 3 2 2 2 2 3 3 4 3 3 2 1 1 0 0 0 0 0 0 1 1 1 1 1 1 2 2 2 2 2 2 2 1 1 2 4 5 5 6 6 5 5 5 5
2 3 2 2 2 3 3 3 4 4 4 3 2 1 0 -0 -0 -0 -0 -0 0 0 -0 0 0 1 1 1 2 2 2 1 1 1 1 2 4 5 5 5 5 5 5 5 5
2 3 3 3 3 3 3 4 4 4 4 4 3 1 0 -0 -0 -0 -0 -0 -0 -0 -1 -0 0 1 1 1 1 1 1 1 1 1 1 2 3 4 5 4 4 4 4 4 4
3 3 3 3 3 3 3 4 4 4 4 4 3 2 1 0 0 -0 -0 -0 -0 -1 -1 -1 -0 0 0 0 0 0 1 1 1 1 1 2 3 3 4 3 3 3 4 4 4
3 3 3 3 3 3 3 3 4 4 4 4 4 3 2 1 0 -0 -1 -1 -1 -1 -1 -1 -1 -0 -0 0 -0 -0 0 1 1 1 1 2 2 3 3 3 3 3 4 4 4